owner,sensor,date,latitude,longitude,vertical_datum,wind_speed,wind_to_direction,wind_speed_of_gust,qcFlag 
COMPS,ioos:station:USF.COMPS:SHP:1,2015-05-01T00:00:00Z,30.0600,-84.2910,10.0,1.93,332.37,2.84,'1111122,1111122,1111122' 
COMPS,ioos:station:USF.COMPS:SHP:1,2015-05-01T00:06:00Z,30.0600,-84.2910,10.0,1.78,330.8,2.84,'1111122,1111122,1111122' 
COMPS,ioos:station:USF.COMPS:SHP:1,2015-05-01T00:12:00Z,30.0600,-84.2910,10.0,1.6,320.96,2.45,'1111122,1111122,1111122' 
COMPS,ioos:station:USF.COMPS:SHP:1,2015-05-01T00:18:00Z,30.0600,-84.2910,10.0,2.11,294.76,3.82,'1111122,1111122,1111122' 
COMPS,ioos:station:USF.COMPS:SHP:1,2015-05-01T00:24:00Z,30.0600,-84.2910,10.0,4.18,280.03,5.58,'1111122,1111122,1111122' 
COMPS,ioos:station:USF.COMPS:SHP:1,2015-05-01T00:30:00Z,30.0600,-84.2910,10.0,4.11,281.37,5.58,'1111122,1111122,1111122' 
COMPS,ioos:station:USF.COMPS:SHP:1,2015-05-01T00:36:00Z,30.0600,-84.2910,10.0,3.38,288.96,5.29,'1111122,1111122,1111122' 
COMPS,ioos:station:USF.COMPS:SHP:1,2015-05-01T00:42:00Z,30.0600,-84.2910,10.0,3.9,287.0,6.85,'1111122,1111122,1111122' 
COMPS,ioos:station:USF.COMPS:SHP:1,2015-05-01T00:48:00Z,30.0600,-84.2910,10.0,3.99,286.03,7.15,'1111122,1111122,1111122' 
COMPS,ioos:station:USF.COMPS:SHP:1,2015-05-01T00:54:00Z,30.0600,-84.2910,10.0,3.65,287.49,5.48,'1111122,1111122,1111122' 
COMPS,ioos:station:USF.COMPS:SHP:1,2015-05-01T03:00:00Z,30.0600,-84.2910,10.0,2.29,310.7,3.82,'1111122,1111122,1111122' 
COMPS,ioos:station:USF.COMPS:SHP:1,2015-05-01T03:06:00Z,30.0600,-84.2910,10.0,2.0,303.72,3.23,'1111122,1111122,1111122' 
COMPS,ioos:station:USF.COMPS:SHP:1,2015-05-01T03:12:00Z,30.0600,-84.2910,10.0,2.32,304.25,3.52,'1111122,1111122,1111122' 
COMPS,ioos:station:USF.COMPS:SHP:1,2015-05-01T03:18:00Z,30.0600,-84.2910,10.0,2.35,305.92,3.62,'1111122,1111122,1111122' 
COMPS,ioos:station:USF.COMPS:SHP:1,2015-05-01T03:24:00Z,30.0600,-84.2910,10.0,2.4,301.17,3.62,'1111122,1111122,1111122' 
COMPS,ioos:station:USF.COMPS:SHP:1,2015-05-01T03:30:00Z,30.0600,-84.2910,10.0,2.43,310.83,3.52,'1111122,1111122,1111122' 
COMPS,ioos:station:USF.COMPS:SHP:1,2015-05-01T03:36:00Z,30.0600,-84.2910,10.0,2.84,316.44,4.21,'1111122,1111122,1111122' 
COMPS,ioos:station:USF.COMPS:SHP:1,2015-05-01T03:42:00Z,30.0600,-84.2910,10.0,3.29,314.14,4.31,'1111122,1111122,1111122' 
COMPS,ioos:station:USF.COMPS:SHP:1,2015-05-01T03:48:00Z,30.0600,-84.2910,10.0,3.13,307.27,4.6,'1111122,1111122,1111122' 
COMPS,ioos:station:USF.COMPS:SHP:1,2015-05-01T03:54:00Z,30.0600,-84.2910,10.0,3.62,306.17,4.9,'1111122,1111122,1111122' 
COMPS,ioos:station:USF.COMPS:SHP:1,2015-05-01T04:00:00Z,30.0600,-84.2910,10.0,3.15,309.91,4.8,'1111122,1111122,1111122' 
COMPS,ioos:station:USF.COMPS:SHP:1,2015-05-01T04:06:00Z,30.0600,-84.2910,10.0,2.75,315.6,3.72,'1111122,1111122,1111122' 
COMPS,ioos:station:USF.COMPS:SHP:1,2015-05-01T04:12:00Z,30.0600,-84.2910,10.0,2.35,322.27,3.62,'1111122,1111122,1111122' 
COMPS,ioos:station:USF.COMPS:SHP:1,2015-05-01T04:18:00Z,30.0600,-84.2910,10.0,3.04,316.49,4.01,'1111122,1111122,1111122' 
COMPS,ioos:station:USF.COMPS:SHP:1,2015-05-01T04:24:00Z,30.0600,-84.2910,10.0,3.19,316.1,4.6,'1111122,1111122,1111122' 
COMPS,ioos:station:USF.COMPS:SHP:1,2015-05-01T04:30:00Z,30.0600,-84.2910,10.0,2.78,317.78,3.82,'1111122,1111122,1111122' 
COMPS,ioos:station:USF.COMPS:SHP:1,2015-05-01T04:36:00Z,30.0600,-84.2910,10.0,2.8,314.31,4.01,'1111122,1111122,1111122' 
COMPS,ioos:station:USF.COMPS:SHP:1,2015-05-01T04:42:00Z,30.0600,-84.2910,10.0,2.6,311.54,4.01,'1111122,1111122,1111122' 
COMPS,ioos:station:USF.COMPS:SHP:1,2015-05-01T04:48:00Z,30.0600,-84.2910,10.0,2.58,308.03,3.92,'1111122,1111122,1111122' 
COMPS,ioos:station:USF.COMPS:SHP:1,2015-05-01T04:54:00Z,30.0600,-84.2910,10.0,2.64,305.71,3.62,'1111122,1111122,1111122' 
COMPS,ioos:station:USF.COMPS:SHP:1,2015-05-01T05:00:00Z,30.0600,-84.2910,10.0,2.67,303.53,3.52,'1111122,1111122,1111122' 
COMPS,ioos:station:USF.COMPS:SHP:1,2015-05-01T05:06:00Z,30.0600,-84.2910,10.0,2.49,303.37,3.62,'1111122,1111122,1111122' 
COMPS,ioos:station:USF.COMPS:SHP:1,2015-05-01T05:12:00Z,30.0600,-84.2910,10.0,2.61,298.87,3.92,'1111122,1111122,1111122' 
COMPS,ioos:station:USF.COMPS:SHP:1,2015-05-01T05:18:00Z,30.0600,-84.2910,10.0,2.94,301.09,4.21,'1111122,1111122,1111122' 
COMPS,ioos:station:USF.COMPS:SHP:1,2015-05-01T05:24:00Z,30.0600,-84.2910,10.0,3.26,299.64,4.31,'1111122,1111122,1111122' 
COMPS,ioos:station:USF.COMPS:SHP:1,2015-05-01T05:30:00Z,30.0600,-84.2910,10.0,2.76,309.22,3.72,'1111122,1111122,1111122' 
COMPS,ioos:station:USF.COMPS:SHP:1,2015-05-01T05:36:00Z,30.0600,-84.2910,10.0,3.26,306.98,4.21,'1111122,1111122,1111122' 
COMPS,ioos:station:USF.COMPS:SHP:1,2015-05-01T05:42:00Z,30.0600,-84.2910,10.0,3.19,311.1,4.31,'1111122,1111122,1111122' 
COMPS,ioos:station:USF.COMPS:SHP:1,2015-05-01T05:48:00Z,30.0600,-84.2910,10.0,3.28,309.0,4.21,'1111122,1111122,1111122' 
COMPS,ioos:station:USF.COMPS:SHP:1,2015-05-01T05:54:00Z,30.0600,-84.2910,10.0,2.7,308.25,4.31,'1111122,1111122,1111122' 
COMPS,ioos:station:USF.COMPS:SHP:1,2015-05-01T06:00:00Z,30.0600,-84.2910,10.0,2.4,313.16,3.52,'1111122,1111122,1111122' 
COMPS,ioos:station:USF.COMPS:SHP:1,2015-05-01T06:06:00Z,30.0600,-84.2910,10.0,2.58,311.54,3.33,'1111122,1111122,1111122' 
COMPS,ioos:station:USF.COMPS:SHP:1,2015-05-01T06:12:00Z,30.0600,-84.2910,10.0,2.45,305.32,3.52,'1111122,1111122,1111122' 
COMPS,ioos:station:USF.COMPS:SHP:1,2015-05-01T06:18:00Z,30.0600,-84.2910,10.0,2.89,308.86,3.82,'1111122,1111122,1111122' 
COMPS,ioos:station:USF.COMPS:SHP:1,2015-05-01T06:24:00Z,30.0600,-84.2910,10.0,2.92,305.6,3.82,'1111122,1111122,1111122' 
COMPS,ioos:station:USF.COMPS:SHP:1,2015-05-01T06:30:00Z,30.0600,-84.2910,10.0,2.82,304.07,4.31,'1111122,1111122,1111122' 
COMPS,ioos:station:USF.COMPS:SHP:1,2015-05-01T06:36:00Z,30.0600,-84.2910,10.0,2.8,305.65,3.72,'1111122,1111122,1111122' 
COMPS,ioos:station:USF.COMPS:SHP:1,2015-05-01T06:42:00Z,30.0600,-84.2910,10.0,2.5,308.07,3.52,'1111122,1111122,1111122' 
COMPS,ioos:station:USF.COMPS:SHP:1,2015-05-01T06:48:00Z,30.0600,-84.2910,10.0,1.97,299.27,2.84,'1111122,1111122,1111122' 
COMPS,ioos:station:USF.COMPS:SHP:1,2015-05-01T06:54:00Z,30.0600,-84.2910,10.0,2.26,296.27,3.33,'1111122,1111122,1111122' 
COMPS,ioos:station:USF.COMPS:SHP:1,2015-05-01T07:00:00Z,30.0600,-84.2910,10.0,2.01,303.16,2.84,'1111122,1111122,1111122' 
COMPS,ioos:station:USF.COMPS:SHP:1,2015-05-01T07:06:00Z,30.0600,-84.2910,10.0,2.28,308.91,3.13,'1111122,1111122,1111122' 
COMPS,ioos:station:USF.COMPS:SHP:1,2015-05-01T07:12:00Z,30.0600,-84.2910,10.0,2.68,307.05,3.33,'1111122,1111122,1111122' 
COMPS,ioos:station:USF.COMPS:SHP:1,2015-05-01T07:18:00Z,30.0600,-84.2910,10.0,2.57,309.52,3.33,'1111122,1111122,1111122' 
COMPS,ioos:station:USF.COMPS:SHP:1,2015-05-01T07:24:00Z,30.0600,-84.2910,10.0,2.41,304.47,3.33,'1111122,1111122,1111122' 
COMPS,ioos:station:USF.COMPS:SHP:1,2015-05-01T07:30:00Z,30.0600,-84.2910,10.0,2.16,302.09,2.74,'1111122,1111122,1111122' 
COMPS,ioos:station:USF.COMPS:SHP:1,2015-05-01T07:36:00Z,30.0600,-84.2910,10.0,2.37,295.76,3.33,'1111122,1111122,1111122' 
COMPS,ioos:station:USF.COMPS:SHP:1,2015-05-01T07:42:00Z,30.0600,-84.2910,10.0,2.87,296.13,4.21,'1111122,1111122,1111122' 
COMPS,ioos:station:USF.COMPS:SHP:1,2015-05-01T07:48:00Z,30.0600,-84.2910,10.0,2.57,293.08,3.43,'1111122,1111122,1111122' 
COMPS,ioos:station:USF.COMPS:SHP:1,2015-05-01T07:54:00Z,30.0600,-84.2910,10.0,2.32,294.0,3.43,'1111122,1111122,1111122' 
COMPS,ioos:station:USF.COMPS:SHP:1,2015-05-01T08:00:00Z,30.0600,-84.2910,10.0,2.67,293.26,3.33,'1111122,1111122,1111122' 
COMPS,ioos:station:USF.COMPS:SHP:1,2015-05-01T08:06:00Z,30.0600,-84.2910,10.0,2.3,286.34,3.23,'1111122,1111122,1111122' 
COMPS,ioos:station:USF.COMPS:SHP:1,2015-05-01T08:12:00Z,30.0600,-84.2910,10.0,2.31,279.27,2.94,'1111122,1111122,1111122' 
COMPS,ioos:station:USF.COMPS:SHP:1,2015-05-01T08:18:00Z,30.0600,-84.2910,10.0,2.88,287.17,3.72,'1111122,1111122,1111122' 
COMPS,ioos:station:USF.COMPS:SHP:1,2015-05-01T08:24:00Z,30.0600,-84.2910,10.0,2.51,287.78,3.33,'1111122,1111122,1111122' 
COMPS,ioos:station:USF.COMPS:SHP:1,2015-05-01T08:30:00Z,30.0600,-84.2910,10.0,2.72,285.46,3.43,'1111122,1111122,1111122' 
COMPS,ioos:station:USF.COMPS:SHP:1,2015-05-01T08:36:00Z,30.0600,-84.2910,10.0,2.6,284.99,3.23,'1111122,1111122,1111122' 
COMPS,ioos:station:USF.COMPS:SHP:1,2015-05-01T08:42:00Z,30.0600,-84.2910,10.0,2.72,283.32,3.62,'1111122,1111122,1111122' 
COMPS,ioos:station:USF.COMPS:SHP:1,2015-05-01T08:48:00Z,30.0600,-84.2910,10.0,2.64,288.29,3.33,'1111122,1111122,1111122' 
COMPS,ioos:station:USF.COMPS:SHP:1,2015-05-01T08:54:00Z,30.0600,-84.2910,10.0,2.48,293.83,3.23,'1111122,1111122,1111122' 
COMPS,ioos:station:USF.COMPS:SHP:1,2015-05-01T09:00:00Z,30.0600,-84.2910,10.0,2.46,295.19,3.52,'1111122,1111122,1111122' 
COMPS,ioos:station:USF.COMPS:SHP:1,2015-05-01T09:06:00Z,30.0600,-84.2910,10.0,2.73,299.14,3.72,'1111122,1111122,1111122' 
COMPS,ioos:station:USF.COMPS:SHP:1,2015-05-01T09:12:00Z,30.0600,-84.2910,10.0,2.74,293.31,3.72,'1111122,1111122,1111122' 
COMPS,ioos:station:USF.COMPS:SHP:1,2015-05-01T09:18:00Z,30.0600,-84.2910,10.0,2.33,295.82,2.94,'1111122,1111122,1111122' 
COMPS,ioos:station:USF.COMPS:SHP:1,2015-05-01T09:24:00Z,30.0600,-84.2910,10.0,2.22,297.09,3.03,'1111122,1111122,1111122' 
COMPS,ioos:station:USF.COMPS:SHP:1,2015-05-01T09:30:00Z,30.0600,-84.2910,10.0,2.39,298.17,3.23,'1111122,1111122,1111122' 
COMPS,ioos:station:USF.COMPS:SHP:1,2015-05-01T09:36:00Z,30.0600,-84.2910,10.0,2.08,299.06,2.94,'1111122,1111122,1111122' 
COMPS,ioos:station:USF.COMPS:SHP:1,2015-05-01T09:42:00Z,30.0600,-84.2910,10.0,1.71,298.5,2.35,'1111122,1111122,1111122' 
COMPS,ioos:station:USF.COMPS:SHP:1,2015-05-01T09:48:00Z,30.0600,-84.2910,10.0,2.19,289.63,3.03,'1111122,1111122,1111122' 
COMPS,ioos:station:USF.COMPS:SHP:1,2015-05-01T09:54:00Z,30.0600,-84.2910,10.0,2.49,294.14,3.23,'1111122,1111122,1111122' 
COMPS,ioos:station:USF.COMPS:SHP:1,2015-05-01T10:00:00Z,30.0600,-84.2910,10.0,2.85,288.31,3.72,'1111122,1111122,1111122' 
COMPS,ioos:station:USF.COMPS:SHP:1,2015-05-01T10:06:00Z,30.0600,-84.2910,10.0,2.53,285.18,3.72,'1111122,1111122,1111122' 
COMPS,ioos:station:USF.COMPS:SHP:1,2015-05-01T10:12:00Z,30.0600,-84.2910,10.0,2.48,293.94,3.52,'1111122,1111122,1111122' 
COMPS,ioos:station:USF.COMPS:SHP:1,2015-05-01T10:18:00Z,30.0600,-84.2910,10.0,2.93,296.4,3.82,'1111122,1111122,1111122' 
COMPS,ioos:station:USF.COMPS:SHP:1,2015-05-01T10:24:00Z,30.0600,-84.2910,10.0,2.55,289.36,3.43,'1111122,1111122,1111122' 
COMPS,ioos:station:USF.COMPS:SHP:1,2015-05-01T10:30:00Z,30.0600,-84.2910,10.0,2.15,289.48,3.13,'1111122,1111122,1111122' 
COMPS,ioos:station:USF.COMPS:SHP:1,2015-05-01T10:36:00Z,30.0600,-84.2910,10.0,2.31,302.74,3.33,'1111122,1111122,1111122' 
COMPS,ioos:station:USF.COMPS:SHP:1,2015-05-01T10:42:00Z,30.0600,-84.2910,10.0,1.85,300.51,2.84,'1111122,1111122,1111122' 
COMPS,ioos:station:USF.COMPS:SHP:1,2015-05-01T10:48:00Z,30.0600,-84.2910,10.0,2.24,290.27,2.94,'1111122,1111122,1111122' 
COMPS,ioos:station:USF.COMPS:SHP:1,2015-05-01T10:54:00Z,30.0600,-84.2910,10.0,2.37,283.29,3.23,'1111122,1111122,1111122' 
COMPS,ioos:station:USF.COMPS:SHP:1,2015-05-01T11:00:00Z,30.0600,-84.2910,10.0,2.45,283.19,3.72,'1111122,1111122,1111122' 
COMPS,ioos:station:USF.COMPS:SHP:1,2015-05-01T11:06:00Z,30.0600,-84.2910,10.0,2.89,281.23,4.5,'1111122,1111122,1111122' 
COMPS,ioos:station:USF.COMPS:SHP:1,2015-05-01T11:12:00Z,30.0600,-84.2910,10.0,4.05,312.96,7.25,'1111122,1111122,1111122' 
COMPS,ioos:station:USF.COMPS:SHP:1,2015-05-01T11:18:00Z,30.0600,-84.2910,10.0,3.69,337.84,6.66,'1111122,1111122,1111122' 
COMPS,ioos:station:USF.COMPS:SHP:1,2015-05-01T11:24:00Z,30.0600,-84.2910,10.0,4.07,337.05,6.27,'1111122,1111122,1111122' 
COMPS,ioos:station:USF.COMPS:SHP:1,2015-05-01T11:30:00Z,30.0600,-84.2910,10.0,5.01,337.05,6.27,'1111122,1111122,1111122' 
COMPS,ioos:station:USF.COMPS:SHP:1,2015-05-01T11:36:00Z,30.0600,-84.2910,10.0,4.48,341.91,6.07,'1111122,1111122,1111122' 
COMPS,ioos:station:USF.COMPS:SHP:1,2015-05-01T11:42:00Z,30.0600,-84.2910,10.0,4.33,337.9,5.87,'1111122,1111122,1111122' 
COMPS,ioos:station:USF.COMPS:SHP:1,2015-05-01T11:48:00Z,30.0600,-84.2910,10.0,4.86,337.69,6.07,'1111122,1111122,1111122' 
COMPS,ioos:station:USF.COMPS:SHP:1,2015-05-01T11:54:00Z,30.0600,-84.2910,10.0,4.32,343.07,6.07,'1111122,1111122,1111122' 
COMPS,ioos:station:USF.COMPS:SHP:1,2015-05-01T12:00:00Z,30.0600,-84.2910,10.0,4.25,341.94,5.97,'1111122,1111122,1111122' 
COMPS,ioos:station:USF.COMPS:SHP:1,2015-05-01T12:06:00Z,30.0600,-84.2910,10.0,4.2,337.64,5.19,'1111122,1111122,1111122' 
COMPS,ioos:station:USF.COMPS:SHP:1,2015-05-01T12:12:00Z,30.0600,-84.2910,10.0,4.46,341.21,5.97,'1111122,1111122,1111122' 
COMPS,ioos:station:USF.COMPS:SHP:1,2015-05-01T12:18:00Z,30.0600,-84.2910,10.0,4.56,342.17,5.97,'1111122,1111122,1111122' 
COMPS,ioos:station:USF.COMPS:SHP:1,2015-05-01T12:24:00Z,30.0600,-84.2910,10.0,4.28,339.5,6.17,'1111122,1111122,1111122' 
COMPS,ioos:station:USF.COMPS:SHP:1,2015-05-01T12:30:00Z,30.0600,-84.2910,10.0,4.28,345.61,6.07,'1111122,1111122,1111122' 
COMPS,ioos:station:USF.COMPS:SHP:1,2015-05-01T12:36:00Z,30.0600,-84.2910,10.0,4.73,349.43,6.76,'1111122,1111122,1111122' 
COMPS,ioos:station:USF.COMPS:SHP:1,2015-05-01T12:42:00Z,30.0600,-84.2910,10.0,4.93,355.47,6.85,'1111122,1111122,1111122' 
COMPS,ioos:station:USF.COMPS:SHP:1,2015-05-01T12:48:00Z,30.0600,-84.2910,10.0,4.94,356.95,6.66,'1111122,1111122,1111122' 
COMPS,ioos:station:USF.COMPS:SHP:1,2015-05-01T12:54:00Z,30.0600,-84.2910,10.0,4.66,357.99,6.66,'1111122,1111122,1111122' 
COMPS,ioos:station:USF.COMPS:SHP:1,2015-05-01T13:00:00Z,30.0600,-84.2910,10.0,4.54,0.33,7.64,'1111122,1111122,1111122' 
COMPS,ioos:station:USF.COMPS:SHP:1,2015-05-01T13:06:00Z,30.0600,-84.2910,10.0,4.31,3.61,6.46,'1111122,1111122,1111122' 
COMPS,ioos:station:USF.COMPS:SHP:1,2015-05-01T13:12:00Z,30.0600,-84.2910,10.0,4.67,7.71,6.07,'1111122,1111122,1111122' 
COMPS,ioos:station:USF.COMPS:SHP:1,2015-05-01T13:18:00Z,30.0600,-84.2910,10.0,4.56,7.99,6.66,'1111122,1111122,1111122' 
COMPS,ioos:station:USF.COMPS:SHP:1,2015-05-01T13:24:00Z,30.0600,-84.2910,10.0,5.02,5.96,6.95,'1111122,1111122,1111122' 
COMPS,ioos:station:USF.COMPS:SHP:1,2015-05-01T13:30:00Z,30.0600,-84.2910,10.0,4.36,9.2,6.46,'1111122,1111122,1111122' 
COMPS,ioos:station:USF.COMPS:SHP:1,2015-05-01T13:36:00Z,30.0600,-84.2910,10.0,4.58,13.24,7.93,'1111122,1111122,1111122' 
COMPS,ioos:station:USF.COMPS:SHP:1,2015-05-01T13:42:00Z,30.0600,-84.2910,10.0,4.98,5.89,7.35,'1111122,1111122,1111122' 
COMPS,ioos:station:USF.COMPS:SHP:1,2015-05-01T13:48:00Z,30.0600,-84.2910,10.0,5.65,4.38,6.85,'1111122,1111122,1111122' 
COMPS,ioos:station:USF.COMPS:SHP:1,2015-05-01T13:54:00Z,30.0600,-84.2910,10.0,5.07,11.03,7.44,'1111122,1111122,1111122' 
COMPS,ioos:station:USF.COMPS:SHP:1,2015-05-01T14:00:00Z,30.0600,-84.2910,10.0,4.31,18.15,7.15,'1111122,1111122,1111122' 
COMPS,ioos:station:USF.COMPS:SHP:1,2015-05-01T14:06:00Z,30.0600,-84.2910,10.0,4.35,18.86,5.87,'1111122,1111122,1111122' 
COMPS,ioos:station:USF.COMPS:SHP:1,2015-05-01T14:12:00Z,30.0600,-84.2910,10.0,4.11,10.31,7.05,'1111122,1111122,1111122' 
COMPS,ioos:station:USF.COMPS:SHP:1,2015-05-01T14:18:00Z,30.0600,-84.2910,10.0,4.12,358.89,6.27,'1111122,1111122,1111122' 
COMPS,ioos:station:USF.COMPS:SHP:1,2015-05-01T14:24:00Z,30.0600,-84.2910,10.0,4.02,3.64,5.97,'1111122,1111122,1111122' 
COMPS,ioos:station:USF.COMPS:SHP:1,2015-05-01T14:30:00Z,30.0600,-84.2910,10.0,2.86,22.86,4.11,'1111122,1111122,1111122' 
COMPS,ioos:station:USF.COMPS:SHP:1,2015-05-01T14:36:00Z,30.0600,-84.2910,10.0,2.4,11.75,3.52,'1111122,1111122,1111122' 
COMPS,ioos:station:USF.COMPS:SHP:1,2015-05-01T14:42:00Z,30.0600,-84.2910,10.0,3.02,4.29,5.87,'1111122,1111122,1111122' 
COMPS,ioos:station:USF.COMPS:SHP:1,2015-05-01T14:48:00Z,30.0600,-84.2910,10.0,4.35,1.25,5.39,'1111122,1111122,1111122' 
COMPS,ioos:station:USF.COMPS:SHP:1,2015-05-01T14:54:00Z,30.0600,-84.2910,10.0,4.6,10.68,7.05,'1111122,1111122,1111122' 
COMPS,ioos:station:USF.COMPS:SHP:1,2015-05-01T15:00:00Z,30.0600,-84.2910,10.0,3.65,24.68,5.58,'1111122,1111122,1111122' 
COMPS,ioos:station:USF.COMPS:SHP:1,2015-05-01T15:06:00Z,30.0600,-84.2910,10.0,3.11,13.43,5.09,'1111122,1111122,1111122' 
COMPS,ioos:station:USF.COMPS:SHP:1,2015-05-01T15:12:00Z,30.0600,-84.2910,10.0,2.87,15.34,4.11,'1111122,1111122,1111122' 
COMPS,ioos:station:USF.COMPS:SHP:1,2015-05-01T15:18:00Z,30.0600,-84.2910,10.0,3.24,8.3,5.39,'1111122,1111122,1111122' 
COMPS,ioos:station:USF.COMPS:SHP:1,2015-05-01T15:24:00Z,30.0600,-84.2910,10.0,4.17,0.36,6.76,'1111122,1111122,1111122' 
COMPS,ioos:station:USF.COMPS:SHP:1,2015-05-01T15:30:00Z,30.0600,-84.2910,10.0,4.73,6.04,6.37,'1111122,1111122,1111122' 
COMPS,ioos:station:USF.COMPS:SHP:1,2015-05-01T15:36:00Z,30.0600,-84.2910,10.0,3.52,5.04,5.48,'1111122,1111122,1111122' 
COMPS,ioos:station:USF.COMPS:SHP:1,2015-05-01T15:42:00Z,30.0600,-84.2910,10.0,2.8,348.38,4.5,'1111122,1111122,1111122' 
COMPS,ioos:station:USF.COMPS:SHP:1,2015-05-01T15:48:00Z,30.0600,-84.2910,10.0,2.76,353.49,4.7,'1111122,1111122,1111122' 
COMPS,ioos:station:USF.COMPS:SHP:1,2015-05-01T15:54:00Z,30.0600,-84.2910,10.0,2.31,12.94,3.82,'1111122,1111122,1111122' 
COMPS,ioos:station:USF.COMPS:SHP:1,2015-05-01T16:00:00Z,30.0600,-84.2910,10.0,2.25,319.16,4.9,'1111122,1111122,1111122' 
COMPS,ioos:station:USF.COMPS:SHP:1,2015-05-01T16:06:00Z,30.0600,-84.2910,10.0,2.99,347.37,5.19,'1111122,1111122,1111122' 
COMPS,ioos:station:USF.COMPS:SHP:1,2015-05-01T16:12:00Z,30.0600,-84.2910,10.0,3.11,332.25,4.5,'1111122,1111122,1111122' 
COMPS,ioos:station:USF.COMPS:SHP:1,2015-05-01T16:18:00Z,30.0600,-84.2910,10.0,2.7,300.29,4.41,'1111122,1111122,1111122' 
COMPS,ioos:station:USF.COMPS:SHP:1,2015-05-01T16:24:00Z,30.0600,-84.2910,10.0,2.46,353.38,5.68,'1111122,1111122,1111122' 
COMPS,ioos:station:USF.COMPS:SHP:1,2015-05-01T16:30:00Z,30.0600,-84.2910,10.0,3.71,340.01,5.78,'1111122,1111122,1111122' 
COMPS,ioos:station:USF.COMPS:SHP:1,2015-05-01T16:36:00Z,30.0600,-84.2910,10.0,3.06,332.66,4.8,'1111122,1111122,1111122' 
COMPS,ioos:station:USF.COMPS:SHP:1,2015-05-01T16:42:00Z,30.0600,-84.2910,10.0,2.9,333.77,4.9,'1111122,1111122,1111122' 
COMPS,ioos:station:USF.COMPS:SHP:1,2015-05-01T16:48:00Z,30.0600,-84.2910,10.0,2.62,339.67,3.62,'1111122,1111122,1111122' 
COMPS,ioos:station:USF.COMPS:SHP:1,2015-05-01T16:54:00Z,30.0600,-84.2910,10.0,2.49,330.35,4.11,'1111122,1111122,1111122' 
COMPS,ioos:station:USF.COMPS:SHP:1,2015-05-01T17:00:00Z,30.0600,-84.2910,10.0,3.73,333.82,5.78,'1111122,1111122,1111122' 
COMPS,ioos:station:USF.COMPS:SHP:1,2015-05-01T17:06:00Z,30.0600,-84.2910,10.0,3.52,307.01,5.19,'1111122,1111122,1111122' 
COMPS,ioos:station:USF.COMPS:SHP:1,2015-05-01T17:12:00Z,30.0600,-84.2910,10.0,3.13,301.88,6.27,'1111122,1111122,1111122' 
COMPS,ioos:station:USF.COMPS:SHP:1,2015-05-01T17:18:00Z,30.0600,-84.2910,10.0,3.75,311.85,4.8,'1111122,1111122,1111122' 
COMPS,ioos:station:USF.COMPS:SHP:1,2015-05-01T17:24:00Z,30.0600,-84.2910,10.0,3.05,295.25,4.5,'1111122,1111122,1111122' 
COMPS,ioos:station:USF.COMPS:SHP:1,2015-05-01T17:30:00Z,30.0600,-84.2910,10.0,4.72,327.33,6.76,'1111122,1111122,1111122' 
COMPS,ioos:station:USF.COMPS:SHP:1,2015-05-01T17:36:00Z,30.0600,-84.2910,10.0,2.56,325.11,4.6,'1111122,1111122,1111122' 
COMPS,ioos:station:USF.COMPS:SHP:1,2015-05-01T17:42:00Z,30.0600,-84.2910,10.0,2.94,330.54,4.21,'1111122,1111122,1111122' 
COMPS,ioos:station:USF.COMPS:SHP:1,2015-05-01T17:48:00Z,30.0600,-84.2910,10.0,4.1,325.01,6.27,'1111122,1111122,1111122' 
COMPS,ioos:station:USF.COMPS:SHP:1,2015-05-01T17:54:00Z,30.0600,-84.2910,10.0,2.48,324.51,6.66,'1111122,1111122,1111122' 
COMPS,ioos:station:USF.COMPS:SHP:1,2015-05-01T18:00:00Z,30.0600,-84.2910,10.0,5.38,335.48,7.35,'1111122,1111122,1111122' 
COMPS,ioos:station:USF.COMPS:SHP:1,2015-05-01T18:06:00Z,30.0600,-84.2910,10.0,4.32,326.51,6.17,'1111122,1111122,1111122' 
COMPS,ioos:station:USF.COMPS:SHP:1,2015-05-01T18:12:00Z,30.0600,-84.2910,10.0,3.71,342.3,5.09,'1111122,1111122,1111122' 
COMPS,ioos:station:USF.COMPS:SHP:1,2015-05-01T18:18:00Z,30.0600,-84.2910,10.0,4.73,333.49,6.66,'1111122,1111122,1111122' 
COMPS,ioos:station:USF.COMPS:SHP:1,2015-05-01T18:24:00Z,30.0600,-84.2910,10.0,4.69,346.33,7.35,'1111122,1111122,1111122' 
COMPS,ioos:station:USF.COMPS:SHP:1,2015-05-01T18:30:00Z,30.0600,-84.2910,10.0,5.34,329.52,7.44,'1111122,1111122,1111122' 
COMPS,ioos:station:USF.COMPS:SHP:1,2015-05-01T18:36:00Z,30.0600,-84.2910,10.0,4.68,311.51,5.87,'1111122,1111122,1111122' 
COMPS,ioos:station:USF.COMPS:SHP:1,2015-05-01T18:42:00Z,30.0600,-84.2910,10.0,5.27,322.18,7.93,'1111122,1111122,1111122' 
COMPS,ioos:station:USF.COMPS:SHP:1,2015-05-01T18:48:00Z,30.0600,-84.2910,10.0,4.13,322.18,6.56,'1111122,1111122,1111122' 
COMPS,ioos:station:USF.COMPS:SHP:1,2015-05-01T18:54:00Z,30.0600,-84.2910,10.0,5.3,331.8,7.74,'1111122,1111122,1111122' 
COMPS,ioos:station:USF.COMPS:SHP:1,2015-05-01T19:00:00Z,30.0600,-84.2910,10.0,4.6,322.85,6.17,'1111122,1111122,1111122' 
COMPS,ioos:station:USF.COMPS:SHP:1,2015-05-01T19:06:00Z,30.0600,-84.2910,10.0,4.46,311.41,6.46,'1111122,1111122,1111122' 
COMPS,ioos:station:USF.COMPS:SHP:1,2015-05-01T19:12:00Z,30.0600,-84.2910,10.0,5.03,340.3,7.83,'1111122,1111122,1111122' 
COMPS,ioos:station:USF.COMPS:SHP:1,2015-05-01T19:18:00Z,30.0600,-84.2910,10.0,4.46,333.24,6.27,'1111122,1111122,1111122' 
COMPS,ioos:station:USF.COMPS:SHP:1,2015-05-01T19:24:00Z,30.0600,-84.2910,10.0,4.32,340.79,8.03,'1111122,1111122,1111122' 
COMPS,ioos:station:USF.COMPS:SHP:1,2015-05-01T19:30:00Z,30.0600,-84.2910,10.0,4.38,341.29,7.25,'1111122,1111122,1111122' 
COMPS,ioos:station:USF.COMPS:SHP:1,2015-05-01T19:36:00Z,30.0600,-84.2910,10.0,4.92,349.1,7.44,'1111122,1111122,1111122' 
COMPS,ioos:station:USF.COMPS:SHP:1,2015-05-01T19:42:00Z,30.0600,-84.2910,10.0,5.56,334.01,8.52,'1111122,1111122,1111122' 
COMPS,ioos:station:USF.COMPS:SHP:1,2015-05-01T19:48:00Z,30.0600,-84.2910,10.0,5.42,351.92,8.23,'1111122,1111122,1111122' 
COMPS,ioos:station:USF.COMPS:SHP:1,2015-05-01T19:54:00Z,30.0600,-84.2910,10.0,5.55,327.06,8.52,'1111122,1111122,1111122' 
COMPS,ioos:station:USF.COMPS:SHP:1,2015-05-01T20:00:00Z,30.0600,-84.2910,10.0,5.08,338.74,6.76,'1111122,1111122,1111122' 
COMPS,ioos:station:USF.COMPS:SHP:1,2015-05-01T20:06:00Z,30.0600,-84.2910,10.0,5.12,315.39,7.74,'1111122,1111122,1111122' 
COMPS,ioos:station:USF.COMPS:SHP:1,2015-05-01T20:12:00Z,30.0600,-84.2910,10.0,3.71,328.99,6.07,'1111122,1111122,1111122' 
COMPS,ioos:station:USF.COMPS:SHP:1,2015-05-01T20:18:00Z,30.0600,-84.2910,10.0,5.46,346.33,9.3,'1111122,1111122,1111122' 
COMPS,ioos:station:USF.COMPS:SHP:1,2015-05-01T20:24:00Z,30.0600,-84.2910,10.0,6.53,356.4,9.6,'1111122,1111122,1111122' 
COMPS,ioos:station:USF.COMPS:SHP:1,2015-05-01T20:30:00Z,30.0600,-84.2910,10.0,5.68,352.64,8.91,'1111122,1111122,1111122' 
COMPS,ioos:station:USF.COMPS:SHP:1,2015-05-01T20:36:00Z,30.0600,-84.2910,10.0,5.65,342.74,8.23,'1111122,1111122,1111122' 
COMPS,ioos:station:USF.COMPS:SHP:1,2015-05-01T20:42:00Z,30.0600,-84.2910,10.0,4.93,342.25,8.33,'1111122,1111122,1111122' 
COMPS,ioos:station:USF.COMPS:SHP:1,2015-05-01T20:48:00Z,30.0600,-84.2910,10.0,6.19,333.32,7.93,'1111122,1111122,1111122' 
COMPS,ioos:station:USF.COMPS:SHP:1,2015-05-01T20:54:00Z,30.0600,-84.2910,10.0,5.46,326.98,7.25,'1111122,1111122,1111122' 
COMPS,ioos:station:USF.COMPS:SHP:1,2015-05-01T21:00:00Z,30.0600,-84.2910,10.0,3.43,333.25,5.68,'1111122,1111122,1111122' 
COMPS,ioos:station:USF.COMPS:SHP:1,2015-05-01T21:06:00Z,30.0600,-84.2910,10.0,4.09,350.61,6.85,'1111122,1111122,1111122' 
COMPS,ioos:station:USF.COMPS:SHP:1,2015-05-01T21:12:00Z,30.0600,-84.2910,10.0,5.58,343.67,8.33,'1111122,1111122,1111122' 
COMPS,ioos:station:USF.COMPS:SHP:1,2015-05-01T21:18:00Z,30.0600,-84.2910,10.0,4.71,333.93,6.76,'1111122,1111122,1111122' 
COMPS,ioos:station:USF.COMPS:SHP:1,2015-05-01T21:24:00Z,30.0600,-84.2910,10.0,4.54,326.16,5.97,'1111122,1111122,1111122' 
COMPS,ioos:station:USF.COMPS:SHP:1,2015-05-01T21:30:00Z,30.0600,-84.2910,10.0,4.33,325.09,7.83,'1111122,1111122,1111122' 